This demonstration page uses our WeatherBlox Daily Observations layout. Learn more.

Left ArrowRight Arrow

Hourly Observations for June 3, 2021

Temp ( °F °C ) Dew Point ( °F °C ) Humidity (%) Winds ( mph kmh ) Pressure ( in mb ) Visibility ( mi km ) Precip ( " mm )
12:15 am 00:15 Clear 60 15.5 48 8.8 65 65 SSE 5 7 29.95 1014 10 16 N/A
12:35 am 00:35 Clear 61 16 48 8.7 62 62 S 6 9 29.95 1014 10 16 N/A
12:55 am 00:55 Clear 61 16 48 8.8 63 63 S 6 9 29.95 1014 10 16 N/A
1:15 am 01:15 Clear 62 16.8 47 8.6 59 59 S 8 13 29.94 1014 10 16 N/A
1:35 am 01:35 Clear 62 16.6 47 8.6 59 59 S 9 15 29.95 1014 10 16 N/A
1:55 am 01:55 Clear 61 16.1 48 8.9 63 63 SSW 8 13 29.95 1014 10 16 N/A
2:15 am 02:15 Clear 61 16 49 9.2 64 64 SSW 9 15 29.95 1014 10 16 N/A
2:35 am 02:35 Clear 60 15.3 49 9.5 69 69 SSW 5 7 29.96 1014 10 16 N/A
2:55 am 02:55 Clear 59 15 49 9.5 70 70 SSW 6 9 29.96 1015 10 16 N/A
3:15 am 03:15 Clear 59 15.2 49 9.6 69 69 SSW 6 9 29.96 1014 10 16 N/A
3:35 am 03:35 Clear 58 14.7 50 9.8 73 73 SSW 5 7 29.96 1015 10 16 N/A
3:55 am 03:55 Clear 58 14.4 49 9.7 74 74 SSW 5 7 29.95 1014 10 16 N/A
4:15 am 04:15 Clear 57 14 50 9.8 76 76 SSW 3 6 29.96 1014 10 16 N/A
4:35 am 04:35 Clear 57 14 50 10 77 77 SSW 5 7 29.96 1014 10 16 N/A
4:55 am 04:55 Clear 57 13.9 50 10 78 78 SSW 5 7 29.96 1015 10 16 N/A
5:15 am 05:15 Clear 57 14 50 10.1 78 78 SSW 6 9 29.96 1014 10 16 N/A
5:35 am 05:35 Clear 56 13.5 50 10.1 80 80 SSW 5 7 29.96 1015 10 16 N/A
5:55 am 05:55 Mostly Cloudy 57 13.7 50 10.2 80 80 SW 5 7 29.97 1015 10 16 N/A
6:15 am 06:15 Cloudy 57 13.9 51 10.6 81 81 SSW 5 7 29.97 1015 10 16 N/A
6:35 am 06:35 Cloudy 58 14.7 52 11 79 79 SSW 6 9 29.97 1015 10 16 N/A
6:55 am 06:55 Mostly Cloudy 60 15.3 52 11 76 76 SSW 7 11 29.96 1014 10 16 N/A
7:15 am 07:15 Partly Cloudy 60 15.3 52 11.2 77 77 SSW 5 7 29.96 1014 10 16 N/A
7:35 am 07:35 Sunny 62 16.5 53 11.5 72 72 SW 6 9 29.96 1014 10 16 N/A
7:55 am 07:55 Sunny 64 17.8 53 11.7 68 68 SW 7 11 29.94 1014 10 16 N/A
8:15 am 08:15 Sunny 66 19 54 12.1 64 64 SW 7 11 29.93 1013 10 16 N/A
8:35 am 08:35 Sunny 68 20 54 12.2 61 61 SW 7 11 29.92 1013 10 16 N/A
8:55 am 08:55 Sunny 70 21.2 55 12.6 58 58 SW 9 15 29.91 1013 10 16 N/A
9:15 am 09:15 Sunny 71 21.5 55 12.7 57 57 SW 12 19 29.90 1013 10 16 N/A
9:35 am 09:35 Sunny 72 22.4 55 12.7 54 54 SSW 10 17 29.90 1012 10 16 N/A
9:55 am 09:55 Sunny 73 22.8 54 12.3 52 52 SW 13 20 29.90 1013 10 16 N/A
10:15 am 10:15 Sunny 74 23.4 54 12.3 50 50 SW 13 20 29.90 1013 10 16 N/A
10:35 am 10:35 Sunny 75 24 54 12.4 48 48 SSW 10 17 29.88 1012 10 16 N/A
10:55 am 10:55 Sunny 76 24.2 55 12.7 49 49 SW 10 17 29.88 1012 10 16 N/A
11:15 am 11:15 Sunny 77 25 55 12.6 46 46 SW 9 15 29.88 1012 10 16 N/A
11:35 am 11:35 Sunny 78 25.3 54 12.4 45 45 WSW 8 13 29.87 1012 10 16 N/A
11:55 am 11:55 Sunny 79 25.9 55 12.5 43 43 SSW 9 15 29.87 1011 10 16 N/A
12:15 pm 12:15 Sunny 79 26.3 55 12.5 42 42 SSW 7 11 29.87 1011 10 16 N/A
12:35 pm 12:35 Sunny 80 26.5 53 11.8 40 40 SSW 10 17 29.85 1011 10 16 N/A
12:55 pm 12:55 Sunny 81 27.1 53 11.7 38 38 SSW 9 15 29.84 1010 10 16 N/A
1:15 pm 13:15 Sunny 82 27.5 51 10.7 35 35 S 7 11 29.83 1010 10 16 N/A
1:35 pm 13:35 Sunny 82 27.6 52 10.9 35 35 SSE 6 9 29.83 1010 10 16 N/A
1:55 pm 13:55 Sunny 83 28.3 53 11.4 35 35 SW 3 6 29.82 1010 10 16 N/A
2:15 pm 14:15 Partly Cloudy 83 28.5 51 10.4 32 32 S 3 6 29.81 1009 10 16 N/A
2:35 pm 14:35 Partly Cloudy 83 28.2 49 9.7 31 31 SW 3 6 29.81 1010 10 16 N/A
2:55 pm 14:55 Mostly Cloudy 84 28.7 50 9.9 31 31 SSW 12 19 29.81 1009 10 16 N/A
3:15 pm 15:15 Partly Cloudy 84 29 50 10.2 31 31 W 8 13 29.80 1009 10 16 N/A
3:35 pm 15:35 Partly Cloudy 83 28.5 49 9.7 31 31 W 5 7 29.79 1009 10 16 N/A
3:55 pm 15:55 Partly Cloudy 85 29.2 50 10 30 30 S 3 6 29.78 1009 10 16 N/A
4:15 pm 16:15 Partly Cloudy 84 28.8 51 10.3 32 32 WSW 12 19 29.78 1008 10 16 N/A
4:35 pm 16:35 Partly Cloudy 85 29.2 48 9 28 28 N N/A 29.77 1008 10 16 N/A
4:55 pm 16:55 Mostly Cloudy 85 29.5 48 9 28 28 WSW 7 11 29.77 1008 10 16 N/A
5:15 pm 17:15 Partly Cloudy 83 28.5 46 7.9 27 27 SSE 3 6 29.77 1008 10 16 N/A
5:35 pm 17:35 Partly Cloudy 85 29.5 49 9.4 29 29 SW 8 13 29.76 1008 10 16 N/A
5:55 pm 17:55 Partly Cloudy 85 29.5 49 9.6 29 29 SW 9 15 29.76 1008 10 16 N/A
6:15 pm 18:15 Sunny 85 29.3 48 9.1 28 28 SW 8 13 29.76 1008 10 16 N/A
6:35 pm 18:35 Sunny 85 29.3 49 9.2 28 28 SW 6 9 29.75 1008 10 16 N/A
6:55 pm 18:55 Sunny 85 29.2 48 9.1 28 28 SW 8 13 29.75 1008 10 16 N/A
7:15 pm 19:15 Sunny 84 28.8 48 9.1 29 29 SW 7 11 29.76 1008 10 16 N/A
7:35 pm 19:35 Sunny 84 28.7 49 9.2 30 30 SW 7 11 29.76 1008 10 16 N/A
7:55 pm 19:55 Sunny 82 28 49 9.7 32 32 SW 7 11 29.77 1008 10 16 N/A
8:15 pm 20:15 Sunny 83 28.1 49 9.5 31 31 S 6 9 29.77 1008 10 16 N/A
8:35 pm 20:35 Sunny 79 26.1 54 12 42 42 S 7 11 29.79 1009 10 16 N/A
8:55 pm 20:55 Sunny 78 25.4 54 12.2 44 44 S 8 13 29.80 1009 10 16 N/A
9:15 pm 21:15 undefined 75 23.9 55 12.8 50 50 S 8 13 29.81 1009 10 16 N/A
9:35 pm 21:35 undefined 73 22.8 56 13.2 55 55 S 7 11 29.82 1010 10 16 N/A
9:55 pm 21:55 undefined 72 22.4 56 13.5 57 57 S 7 11 29.83 1010 10 16 N/A
10:15 pm 22:15 undefined 73 22.5 56 13.5 57 57 S 10 17 29.84 1010 10 16 N/A
10:35 pm 22:35 undefined 73 22.6 56 13.5 57 57 S 13 20 29.85 1011 10 16 N/A
10:55 pm 22:55 undefined 72 22 56 13.5 59 59 S 13 20 29.86 1011 10 16 N/A
11:15 pm 23:15 undefined 71 21.5 56 13.5 60 60 S 12 19 29.87 1011 10 16 N/A
11:35 pm 23:35 undefined 70 21 56 13.3 62 62 S 10 17 29.87 1011 10 16 N/A
11:55 pm 23:55 undefined 69 20.6 56 13.3 63 63 S 9 15 29.87 1012 10 16 N/A

Powered by AerisWeather